Temp
50 52 44 43 43 47 45 46 36 45 46 54 57 58 57 61 56 51 49 50 51 50 47 45 44 44 45 45 45 46 45 43 42 44 44 43 42 42 43 42 42 42 42 42
40 47 50 46 50 51 51 51 48 49 48 60 63 65 63 59 54 50 49 49 50 49 46 44 43 44 44 45 46 45 43 42 42 42 42 40 40 40 40 40 39 39 39 39
34 45 44 37 47 49 51 55 53 46 55 63 61 61 60 60 55 51 49 49 48 46 44 44 43 43 43 44 46 44 42 41 40 38 37 36 37 37 36 35 36 34 34 36
32 38 24 45 56 56 52 55 57 57 59 62 62 63 62 63 55 49 48 46 43 42 41 41 41 42 44 45 44 42 40 38 38 37 35 36 34 32 32 33 31 31 31 31
29 33 41 47 53 46 46 47 56 55 59 61 63 58 49 56 53 50 45 42 36 40 40 39 38 39 43 43 42 40 36 34 34 33 31 32 30 31 31 32 31 31 31 30
34 27 25 42 55 59 55 37 56 57 57 57 52 43 49 51 48 42 39 37 36 35 35 35 35 38 39 38 38 33 35 35 35 33 31 30 31 31 31 31 31 33 31 31
33 29 37 50 56 57 34 40 54 57 56 55 46 45 46 41 36 34 36 35 35 34 32 32 35 35 33 34 31 34 35 35 34 35 32 32 32 32 31 31 31 31 31 31
35 30 27 56 53 42 48 50 52 52 52 48 40 38 34 32 32 32 32 33 34 33 33 37 39 37 32 30 33 35 35 32 31 33 34 34 32 32 32 32 31 31 31 31
40 39 44 52 51 54 51 50 49 49 50 42 36 32 31 31 31 31 31 33 36 36 38 42 43 42 37 35 36 34 32 30 31 33 33 35 33 32 33 32 31 30 30 29
42 47 51 51 54 52 52 51 51 51 49 41 32 31 31 31 31 31 32 35 38 39 40 41 44 43 42 42 42 40 38 36 36 35 34 36 36 34 31 30 30 29 28 26
43 48 48 51 53 53 51 50 50 49 46 36 34 32 32 31 31 31 32 36 40 39 39 39 42 42 43 43 43 39 38 37 36 36 35 31 29 29 30 26 26 26 25 26
40 46 45 47 52 53 48 46 48 47 41 39 38 34 34 32 33 33 34 37 38 38 38 40 40 40 41 42 42 39 37 37 36 36 35 36 34 28 26 26 25 25 25 25
44 48 45 47 51 52 48 47 47 46 44 39 38 38 35 33 34 34 35 35 33 33 34 35 34 33 38 40 40 39 37 35 33 34 33 32 32 31 29 24 24 24 25 25
50 47 43 45 43 48 48 48 47 46 44 41 40 40 37 35 34 34 33 33 34 32 30 28 27 27 29 30 28 27 29 30 32 31 30 29 29 28 28 27 26 25 23 25
47 47 48 48 47 45 46 45 43 41 40 39 40 38 37 35 34 35 35 34 33 31 28 25 24 24 27 27 28 28 29 29 29 29 28 28 29 29 28 28 27 27 27 25
45 47 46 44 44 42 42 42 41 39 38 38 37 37 38 38 38 36 35 35 31 28 27 24 24 24 27 27 27 28 28 27 29 30 29 29 29 28 28 27 26 26 25 20
41 39 42 40 40 40 40 42 41 39 38 37 37 38 39 37 35 33 32 32 30 27 25 25 22 24 26 28 31 32 29 28 26 29 28 28 27 26 26 25 24 24 24 17
45 45 45 44 41 40 40 40 39 38 36 38 36 34 31 30 30 28 28 27 26 25 27 24 23 24 26 28 31 32 31 29 29 27 27 25 25 25 24 23 22 21 21 20
45 44 44 43 42 41 40 38 37 36 34 32 29 28 29 29 27 26 26 24 23 23 23 24 25 26 27 28 31 31 29 27 27 26 24 20 22 22 21 21 20 20 20 20
41 42 42 41 40 38 36 34 33 31 30 29 27 26 25 24 25 23 24 23 26 28 25 26 28 29 28 27 27 30 27 26 25 23 22 22 21 20 20 16 17 18 18 17
36 36 33 32 32 32 32 32 30 27 27 27 25 24 22 22 23 24 24 25 24 25 27 27 29 29 29 27 29 27 25 24 23 22 20 20 19 20 19 19 18 17 16 16
31 31 31 31 31 30 30 31 30 28 27 25 25 23 21 20 22 25 29 28 27 27 27 29 30 28 26 25 27 24 23 22 21 21 20 20 20 19 18 17 16 15 15 14
31 31 31 31 30 30 30 30 29 28 26 25 23 22 22 23 25 25 24 27 27 27 29 29 24 21 22 25 24 22 21 20 20 19 19 18 18 17 16 15 14 14 12 11
31 31 31 31 31 30 28 28 29 29 28 26 24 24 24 22 26 31 31 28 26 27 27 21 20 20 22 23 22 21 20 19 18 18 16 10 16 13 14 12 11 12 11 9
32 31 30 30 31 31 31 31 30 29 28 28 26 26 27 29 28 31 29 27 25 27 23 20 19 19 23 22 20 19 19 18 18 17 15 15 13 12 13 13 9 10 8 8
35 35 35 35 36 34 34 33 31 30 30 27 26 27 27 28 31 30 28 27 26 26 22 19 19 21 21 21 19 18 18 15 13 14 13 13 12 12 10 9 8 8 8 7
36 35 35 34 35 36 35 34 31 30 30 29 27 27 28 29 29 28 27 25 26 24 20 20 20 21 21 19 18 17 16 15 14 13 12 12 11 12 9 8 9 8 6 5
MSLP
1008.12 1007.34 1007.85 1008.15 1008.17 1007.62 1006.89 1006.90 1007.18 1006.19 1005.74 1005.46 1005.19 1005.61 1006.32 1007.87 1010.39 1012.64 1013.93 1015.09 1016.12 1017.26 1018.74 1020.34 1021.04 1021.51 1022.05 1022.17 1022.10 1022.31 1022.51 1022.74 1022.74 1022.72 1022.79 1022.79 1022.72 1022.67 1022.51 1022.63 1022.54 1022.29 1021.73 1021.69
1009.17 1008.57 1007.43 1006.85 1006.78 1005.99 1005.89 1005.71 1005.59 1005.54 1004.87 1004.94 1004.62 1004.66 1005.12 1007.04 1009.88 1012.10 1013.67 1015.07 1016.26 1017.39 1018.91 1020.26 1021.03 1021.47 1022.16 1021.99 1022.14 1022.65 1022.90 1023.11 1023.21 1023.31 1023.42 1023.55 1023.54 1023.52 1023.36 1023.37 1023.42 1023.22 1022.64 1022.58
1008.92 1008.62 1007.77 1006.76 1004.95 1005.50 1004.86 1004.37 1004.47 1003.85 1003.63 1003.27 1003.20 1003.86 1005.04 1006.28 1009.09 1011.59 1013.68 1015.15 1016.53 1017.89 1019.30 1020.37 1021.18 1021.72 1022.02 1022.14 1022.40 1022.91 1023.31 1023.55 1023.86 1024.12 1024.33 1024.48 1024.45 1024.33 1024.22 1024.32 1024.34 1024.44 1023.98 1023.53
1009.36 1008.89 1007.09 1005.57 1005.10 1004.46 1004.07 1003.70 1003.46 1003.25 1003.04 1002.89 1003.27 1004.14 1005.51 1006.55 1008.93 1011.66 1013.84 1015.77 1017.59 1018.84 1019.90 1020.98 1021.71 1021.98 1022.18 1022.33 1022.80 1023.40 1023.86 1024.28 1024.46 1024.69 1024.91 1025.03 1025.15 1025.16 1025.05 1025.16 1025.18 1025.18 1024.99 1024.77
1009.43 1008.04 1006.54 1005.15 1004.10 1004.42 1004.12 1003.77 1003.86 1003.68 1003.42 1003.45 1004.12 1005.43 1007.74 1008.58 1010.07 1012.01 1014.36 1016.83 1018.65 1019.69 1020.52 1021.51 1022.16 1022.51 1022.55 1022.82 1023.35 1023.91 1024.53 1024.98 1025.27 1025.63 1025.75 1025.75 1025.79 1025.76 1025.67 1025.59 1025.55 1025.57 1025.60 1025.43
1009.12 1007.96 1006.27 1004.80 1004.47 1004.26 1004.28 1003.93 1004.22 1004.07 1003.86 1004.39 1006.09 1007.35 1008.46 1010.75 1012.24 1013.99 1015.86 1017.89 1019.47 1020.44 1021.27 1022.02 1022.45 1022.82 1023.13 1023.49 1024.03 1024.72 1024.94 1025.11 1025.60 1025.97 1026.24 1026.25 1026.22 1026.23 1026.25 1026.05 1026.00 1025.89 1025.91 1025.88
1008.22 1007.62 1006.24 1004.62 1004.57 1004.96 1005.56 1004.32 1004.64 1004.45 1004.71 1005.57 1007.62 1009.62 1010.65 1012.91 1014.66 1015.82 1017.36 1018.96 1020.22 1021.13 1021.75 1022.41 1022.80 1023.21 1023.72 1024.10 1024.80 1025.12 1025.45 1025.84 1025.99 1026.08 1026.53 1026.46 1026.58 1026.62 1026.49 1026.49 1026.37 1026.24 1026.13 1026.16
1007.18 1006.91 1005.96 1004.37 1004.21 1005.19 1005.37 1005.75 1005.96 1006.12 1006.64 1007.91 1010.17 1011.99 1013.63 1014.95 1016.08 1017.21 1018.41 1019.70 1020.65 1021.21 1021.86 1022.31 1022.79 1023.44 1024.09 1024.63 1025.15 1025.33 1025.68 1026.30 1026.47 1026.51 1026.55 1026.75 1026.87 1026.80 1026.76 1026.60 1026.48 1026.21 1026.03 1025.95
1006.11 1005.39 1005.98 1005.29 1005.26 1005.51 1006.33 1006.35 1006.89 1007.33 1008.12 1009.98 1011.85 1013.56 1015.01 1016.13 1017.36 1018.22 1019.13 1019.94 1020.60 1021.02 1021.24 1021.64 1022.21 1022.83 1023.41 1024.44 1025.13 1025.55 1026.03 1026.46 1026.61 1026.76 1026.86 1026.81 1026.92 1026.86 1026.68 1026.69 1026.58 1026.52 1026.46 1026.44
1005.81 1004.96 1004.90 1005.41 1005.53 1006.14 1006.66 1007.01 1007.64 1008.24 1009.33 1011.17 1012.91 1014.51 1015.71 1017.00 1018.08 1018.84 1019.54 1019.90 1020.24 1020.47 1020.77 1021.21 1021.77 1022.31 1022.93 1023.57 1024.06 1024.51 1025.09 1025.63 1026.15 1026.40 1026.66 1026.74 1026.87 1027.33 1027.69 1027.66 1027.46 1027.43 1027.34 1027.53
1004.85 1004.95 1005.50 1005.44 1005.63 1006.16 1007.04 1007.75 1008.16 1008.98 1010.29 1012.34 1013.68 1014.64 1016.25 1017.47 1018.38 1019.08 1019.53 1019.73 1019.93 1020.31 1020.87 1021.62 1022.10 1022.53 1023.00 1023.39 1023.75 1024.34 1024.95 1025.46 1025.92 1026.29 1026.65 1027.59 1028.40 1028.57 1028.58 1029.40 1029.26 1028.84 1028.63 1028.43
1004.57 1005.44 1005.61 1005.65 1005.61 1006.39 1007.36 1008.19 1008.78 1009.56 1011.10 1012.59 1013.71 1014.99 1016.44 1017.62 1018.48 1019.08 1019.49 1019.72 1020.13 1020.68 1021.37 1021.97 1022.52 1023.00 1023.30 1023.74 1024.10 1024.45 1024.96 1025.46 1025.96 1026.19 1026.63 1026.76 1027.36 1028.90 1029.73 1029.80 1029.94 1029.94 1029.93 1029.67
1005.64 1006.26 1006.40 1006.56 1006.38 1006.91 1007.82 1008.57 1009.25 1010.08 1011.36 1012.54 1014.25 1015.38 1016.57 1017.57 1018.46 1019.18 1019.74 1020.25 1020.88 1021.53 1022.18 1022.65 1023.28 1023.84 1024.00 1024.31 1024.51 1024.69 1025.25 1026.06 1026.70 1026.71 1026.99 1027.34 1027.66 1028.08 1028.52 1029.96 1030.10 1030.13 1029.96 1030.03
1006.29 1006.81 1007.10 1007.30 1007.64 1008.04 1008.49 1009.07 1010.02 1010.80 1011.93 1013.22 1014.35 1015.46 1016.56 1017.44 1018.54 1019.25 1019.99 1020.87 1021.74 1022.59 1023.36 1024.09 1024.79 1025.39 1025.74 1025.92 1026.13 1026.46 1026.74 1026.87 1026.98 1027.37 1027.74 1028.08 1028.34 1028.60 1028.89 1029.16 1029.27 1029.57 1030.18 1029.98
1006.87 1007.30 1007.24 1007.63 1008.28 1008.86 1009.47 1010.17 1010.68 1011.60 1012.67 1013.66 1014.64 1015.61 1016.49 1017.41 1018.26 1019.12 1020.26 1021.33 1022.36 1023.30 1024.22 1025.02 1025.68 1026.20 1026.60 1026.79 1026.81 1027.03 1027.28 1027.57 1027.86 1028.21 1028.44 1028.59 1028.57 1028.67 1028.80 1029.08 1029.30 1029.35 1029.38 1029.95
1007.40 1007.50 1007.97 1008.34 1008.85 1009.64 1010.27 1010.81 1011.28 1012.22 1013.25 1014.12 1014.95 1015.85 1016.66 1017.52 1018.34 1019.49 1020.65 1021.54 1022.26 1023.26 1024.45 1025.41 1026.05 1026.73 1026.99 1027.12 1027.30 1027.57 1027.90 1028.18 1028.06 1028.29 1028.48 1028.56 1028.74 1028.91 1029.12 1029.27 1029.46 1029.56 1029.78 1030.86
1007.74 1008.07 1008.36 1008.84 1009.53 1010.23 1010.81 1011.35 1011.95 1012.93 1013.82 1014.62 1015.40 1016.20 1016.97 1017.87 1019.04 1020.06 1021.08 1022.02 1022.86 1023.88 1024.92 1025.71 1026.55 1027.07 1027.27 1027.31 1027.01 1027.30 1027.92 1028.38 1028.69 1028.66 1028.79 1029.02 1029.25 1029.49 1029.68 1029.90 1030.10 1030.14 1030.34 1031.65
1008.24 1008.37 1008.71 1009.24 1009.99 1010.70 1011.32 1011.96 1012.77 1013.64 1014.49 1015.26 1016.12 1016.99 1017.81 1018.82 1019.61 1020.78 1021.84 1022.86 1023.72 1024.59 1025.20 1026.21 1026.83 1027.28 1027.45 1027.49 1027.18 1027.46 1027.87 1028.32 1028.69 1029.10 1029.44 1029.76 1029.83 1030.11 1030.33 1030.58 1030.86 1030.95 1031.00 1031.35
1008.75 1008.94 1009.39 1009.91 1010.67 1011.31 1012.01 1012.76 1013.62 1014.57 1015.44 1016.31 1017.26 1018.18 1019.02 1019.88 1020.85 1021.77 1022.67 1023.49 1024.01 1024.65 1025.82 1026.47 1026.94 1027.26 1027.58 1027.76 1027.59 1027.84 1028.27 1028.74 1029.12 1029.60 1030.07 1030.62 1030.60 1030.87 1031.22 1031.35 1031.46 1031.56 1031.61 1031.70
1009.81 1010.10 1010.44 1011.00 1011.66 1012.33 1013.08 1013.90 1014.77 1015.74 1016.75 1017.51 1018.40 1019.32 1020.17 1021.06 1021.85 1022.66 1023.33 1023.64 1024.06 1024.57 1025.89 1026.44 1026.80 1027.12 1027.62 1028.19 1028.12 1028.21 1028.69 1029.13 1029.52 1030.06 1030.37 1030.64 1031.00 1031.37 1031.69 1032.22 1032.23 1032.10 1032.13 1032.28
1011.08 1011.52 1012.06 1012.55 1013.07 1013.63 1014.31 1014.96 1015.71 1016.72 1017.61 1018.35 1019.06 1019.90 1020.80 1021.74 1022.45 1022.85 1023.15 1023.47 1024.78 1025.36 1025.82 1026.45 1026.63 1027.17 1027.67 1028.18 1028.31 1028.71 1029.09 1029.53 1029.96 1030.35 1030.73 1031.09 1031.45 1031.67 1031.95 1032.20 1032.35 1032.53 1032.68 1032.81
1012.26 1012.68 1013.12 1013.53 1014.01 1014.62 1015.27 1015.86 1016.49 1017.29 1017.97 1018.77 1019.58 1020.46 1021.32 1022.07 1022.58 1022.87 1022.93 1023.28 1024.68 1025.36 1025.94 1026.28 1026.73 1027.33 1027.99 1028.34 1028.51 1029.04 1029.55 1029.98 1030.35 1030.71 1031.09 1031.38 1031.61 1031.93 1032.27 1032.61 1032.86 1033.04 1033.17 1033.28
1012.88 1013.33 1013.78 1014.15 1014.60 1015.16 1015.82 1016.34 1016.96 1017.63 1018.30 1018.99 1019.76 1020.58 1021.17 1021.80 1022.24 1022.44 1022.97 1023.92 1024.71 1025.39 1025.78 1026.32 1027.26 1028.19 1028.58 1028.44 1028.96 1029.51 1029.97 1030.35 1030.66 1031.05 1031.47 1031.89 1032.19 1032.52 1032.74 1033.03 1033.29 1033.44 1033.63 1033.87
1013.25 1013.72 1014.16 1014.54 1015.04 1015.53 1016.00 1016.67 1017.23 1017.84 1018.46 1019.35 1020.12 1020.75 1021.21 1021.84 1022.27 1022.49 1022.96 1024.02 1024.83 1025.45 1025.81 1027.14 1027.93 1028.52 1028.52 1028.90 1029.35 1029.82 1030.30 1030.62 1031.13 1031.50 1032.00 1032.51 1032.62 1033.08 1033.21 1033.58 1033.71 1033.78 1034.02 1034.31
1013.44 1013.92 1014.33 1014.68 1014.93 1015.30 1015.87 1016.62 1017.22 1017.90 1018.58 1019.23 1020.12 1020.83 1021.38 1021.73 1021.90 1022.19 1023.22 1024.11 1025.03 1025.38 1026.47 1027.61 1028.31 1028.65 1028.60 1029.09 1029.60 1030.09 1030.51 1030.99 1031.38 1031.75 1032.16 1032.43 1032.88 1033.26 1033.39 1033.58 1034.02 1034.14 1034.42 1034.42
1013.36 1013.59 1013.96 1014.19 1014.34 1014.93 1015.56 1016.29 1016.70 1017.45 1018.11 1018.99 1019.86 1020.53 1021.18 1021.73 1021.90 1022.52 1023.46 1024.29 1025.05 1025.58 1026.71 1027.77 1028.30 1028.42 1028.73 1029.21 1029.81 1030.33 1030.70 1031.53 1032.20 1032.18 1032.47 1032.80 1033.10 1033.37 1033.75 1033.99 1034.21 1034.23 1034.34 1034.52
1013.17 1013.39 1013.83 1014.21 1014.49 1014.85 1015.35 1015.84 1016.37 1017.07 1017.75 1018.48 1019.26 1020.13 1020.64 1021.19 1021.72 1022.47 1023.37 1024.27 1024.87 1025.76 1026.79 1027.48 1028.10 1028.24 1028.72 1029.41 1029.97 1030.63 1031.02 1031.51 1031.84 1032.32 1032.59 1032.77 1033.19 1033.20 1033.73 1033.99 1034.06 1034.25 1034.49 1034.66
Wind_Speed
21 23 12 11 13 18 18 17 13 17 19 21 17 12 19 13 16 15 17 16 13 11 9 8 6 6 4 3 5 4 6 6 7 8 9 9 10 10 10 11 11 12 12 14
22 23 22 21 22 26 22 24 24 23 25 23 22 20 15 18 16 17 17 16 14 12 11 9 8 7 5 5 6 6 6 7 7 8 9 10 10 9 10 11 12 12 13 13
21 21 20 18 29 22 25 26 24 24 23 24 19 16 13 13 18 17 16 16 15 12 11 10 8 7 6 6 6 7 6 7 8 8 9 9 10 10 11 11 12 12 13 13
6 11 14 12 17 25 22 23 22 24 22 22 18 13 9 9 16 15 15 14 14 12 11 10 9 7 7 7 7 7 8 8 9 8 8 8 9 9 9 8 10 10 11 13
8 13 16 19 15 6 11 17 17 19 19 18 12 3 5 5 13 14 15 14 11 12 12 10 10 7 7 7 7 8 8 9 9 8 8 8 9 9 9 8 9 9 10 12
12 15 18 18 20 13 10 15 15 20 19 16 9 9 7 9 13 16 17 15 13 10 10 9 7 8 9 8 9 8 7 8 8 9 8 8 9 9 8 7 8 7 9 11
15 15 16 24 24 2 11 14 7 7 5 5 10 4 14 15 15 16 16 16 14 13 9 8 7 7 7 9 9 8 8 8 8 8 8 7 8 7 7 7 6 7 8 9
13 18 19 13 2 12 5 1 1 2 1 8 12 14 13 15 16 16 16 16 15 13 12 12 12 12 10 9 7 8 9 8 7 7 6 6 6 6 6 5 7 8 9 9
11 5 6 6 8 7 4 3 2 3 6 15 15 14 15 14 14 14 15 15 14 13 14 13 13 12 12 12 11 10 9 8 7 7 6 6 7 7 6 7 7 8 8 8
8 10 14 9 8 6 6 4 4 7 11 13 14 15 15 13 13 13 12 15 14 14 13 12 11 10 12 12 11 10 9 9 7 7 7 7 6 7 8 8 8 8 8 8
14 16 4 8 13 9 6 4 7 9 13 14 16 16 17 15 14 12 12 12 13 13 12 12 11 11 10 9 9 9 8 7 7 6 7 9 9 8 8 10 11 8 9 8
12 3 10 4 9 11 10 9 10 13 14 14 16 17 17 14 14 14 12 12 11 12 13 12 12 10 9 9 8 8 8 6 4 5 4 4 7 8 11 11 10 11 13 12
6 2 5 3 3 6 9 10 11 12 14 16 16 16 18 16 15 15 13 11 9 10 8 8 9 8 6 7 6 7 8 8 5 4 5 5 4 5 5 6 6 7 9 11
2 5 4 5 4 7 8 9 11 12 13 14 16 16 16 15 16 15 14 13 13 12 11 10 10 8 7 8 10 9 9 8 6 5 5 4 4 4 3 4 4 4 7 8
5 3 3 5 9 9 9 11 13 13 14 14 15 16 16 17 17 16 15 15 14 14 12 11 10 9 8 7 10 10 7 6 5 5 4 3 3 3 3 3 4 4 4 8
5 4 6 8 9 10 10 12 13 13 14 15 15 16 16 16 15 15 15 15 15 13 13 11 11 9 8 8 9 8 7 6 3 4 3 4 3 3 3 4 4 4 5 7
6 6 7 8 9 9 10 10 10 13 13 14 15 15 16 16 15 15 13 11 11 12 12 11 11 8 7 7 7 7 6 5 4 3 4 4 3 4 4 4 4 4 5 6
2 2 4 7 8 9 10 10 11 13 13 14 12 10 12 13 13 13 12 12 12 11 11 11 10 8 7 5 4 5 5 4 4 4 3 4 4 4 4 4 4 4 4 5
3 3 5 8 8 8 9 9 10 10 9 12 12 11 11 10 13 13 13 12 12 13 11 11 13 11 9 6 5 5 5 4 4 4 4 3 3 4 4 3 3 3 4 4
7 6 6 8 7 7 7 8 11 11 11 12 12 12 12 12 12 12 13 12 10 9 13 13 11 10 9 8 2 5 5 4 4 4 3 3 3 3 3 3 3 3 4 4
8 8 8 9 8 9 9 9 11 12 12 13 14 13 13 13 12 12 13 10 11 14 13 13 9 8 7 8 5 5 4 4 4 4 3 3 4 2 2 2 2 3 3 4
7 8 8 8 8 9 8 9 9 11 11 12 11 12 13 13 12 11 8 9 9 15 11 8 7 9 9 8 6 5 5 4 4 4 3 2 2 1 1 1 2 3 3 3
7 8 8 9 8 8 9 8 9 10 11 11 13 14 12 10 10 10 8 12 10 12 9 7 13 12 10 5 5 5 5 4 4 3 3 3 2 1 1 2 2 2 3 4
8 8 8 8 9 8 8 8 8 9 9 10 10 11 12 10 8 7 9 13 15 13 9 11 12 12 8 6 5 5 5 4 4 3 4 1 3 2 1 0 1 2 2 2
8 8 9 9 8 6 9 9 9 9 11 10 11 11 11 8 8 8 9 10 15 11 10 13 13 11 6 6 5 5 4 4 4 4 4 3 2 2 2 1 1 2 2 3
9 7 7 8 5 7 7 8 7 8 9 9 9 9 9 8 8 9 10 12 12 12 10 9 8 7 6 6 6 5 4 5 4 3 3 3 3 3 2 1 1 2 2 3
5 5 6 6 5 6 7 8 7 8 9 9 10 10 10 10 10 10 12 11 10 9 9 9 8 7 6 6 6 5 4 5 4 5 5 4 3 3 2 2 2 2 2 3
Wind_Direction
252 260 174 239 248 259 250 254 243 266 260 264 280 283 208 203 167 189 182 189 190 168 148 149 149 145 137 136 99 81 76 57 51 44 44 39 37 33 35 32 27 24 25 27
268 282 266 265 253 250 260 245 248 254 255 259 262 272 267 175 179 192 191 186 180 163 154 154 157 147 152 123 95 84 65 62 52 49 46 40 38 37 39 35 33 22 26 31
252 243 258 264 255 267 264 261 264 263 265 269 277 281 240 189 180 195 189 186 172 155 158 154 151 153 145 125 113 88 81 72 67 55 51 43 40 41 43 39 37 33 25 23
259 279 257 249 244 248 269 256 260 259 264 272 277 287 306 219 166 171 182 167 158 160 150 152 152 141 147 125 108 100 85 69 58 55 55 52 56 47 47 49 46 40 34 27
246 253 264 268 248 233 254 264 272 283 278 276 287 96 47 139 162 162 145 148 148 157 146 150 146 153 139 123 118 101 85 71 59 63 53 54 54 49 41 45 46 47 38 38
249 252 255 261 265 315 354 261 258 254 260 267 136 202 192 158 127 120 118 129 140 127 131 137 143 151 132 124 99 79 83 93 93 79 66 55 53 52 48 46 44 41 49 39
238 249 259 264 271 201 241 269 344 318 306 234 184 7 106 116 115 115 127 134 139 138 131 126 124 114 117 119 120 127 102 82 66 80 77 65 68 52 52 50 50 45 46 47
230 244 254 247 150 214 298 56 319 4 222 125 109 116 109 118 124 128 133 140 146 143 145 155 150 142 132 124 122 106 106 98 84 81 76 76 64 66 60 44 49 43 40 40
251 280 225 267 222 227 253 277 212 163 144 132 134 132 133 132 133 133 139 147 147 151 155 155 155 155 143 144 141 133 116 110 104 98 81 73 62 45 43 47 39 36 34 31
260 261 235 240 196 211 216 228 174 145 140 141 143 142 135 137 139 143 151 153 159 157 155 151 147 145 143 151 150 140 130 123 109 81 70 51 66 63 42 28 34 29 34 32
252 258 241 247 247 223 196 192 163 144 144 148 148 143 148 148 149 149 156 161 160 158 150 147 149 140 137 143 137 129 125 122 113 111 110 95 63 30 70 52 35 33 17 45
259 311 252 308 218 207 179 189 166 156 142 154 154 152 154 152 152 156 156 162 157 150 149 150 141 141 138 138 141 137 130 115 92 103 87 86 130 110 88 88 78 63 45 32
243 320 87 70 96 159 178 185 171 156 155 153 156 159 154 152 151 153 157 144 132 132 122 120 99 83 106 124 138 127 114 114 115 97 85 77 65 38 105 143 118 83 61 43
192 150 136 162 162 166 163 159 155 148 147 152 158 152 153 152 149 156 151 144 138 132 119 114 110 103 90 88 86 78 82 71 93 93 94 89 74 68 48 17 11 104 82 38
171 239 326 137 139 145 148 153 157 150 153 154 155 153 158 151 161 154 148 146 145 142 136 131 126 117 115 118 117 118 118 109 100 93 76 86 83 67 42 22 14 16 35 27
182 151 141 152 148 150 157 168 163 154 159 157 156 158 157 158 148 143 147 153 152 148 144 132 128 124 128 119 116 109 95 82 90 113 118 80 63 45 36 30 17 18 35 28
148 162 158 154 157 159 168 168 159 158 158 160 159 156 156 146 143 146 146 144 120 128 133 132 129 129 134 148 144 127 121 109 87 105 75 72 63 53 36 28 23 11 42 64
52 93 162 162 165 166 163 158 152 158 163 160 146 141 134 146 146 137 132 125 123 132 132 130 132 134 134 141 130 116 117 118 102 93 89 62 48 55 46 33 27 13 10 69
51 121 148 149 158 159 158 154 148 140 127 123 124 130 134 134 135 137 139 142 144 140 135 139 141 139 137 124 133 120 116 120 121 99 92 121 91 64 48 26 25 19 10 18
87 95 116 129 129 140 133 113 121 122 126 128 126 133 136 138 139 146 149 152 159 134 150 145 153 145 135 135 180 118 128 129 124 106 75 93 93 81 97 103 6 6 15 10
100 102 89 90 85 95 115 128 130 140 146 143 152 149 144 143 151 153 156 147 121 145 145 157 157 143 140 139 159 124 128 127 135 132 136 129 153 104 73 37 22 18 7 358
119 121 124 125 130 124 131 144 148 150 150 150 141 139 140 147 153 165 166 149 149 156 153 160 154 148 128 163 121 130 131 136 136 144 143 142 125 129 92 46 7 4 353 355
125 130 133 136 138 139 145 151 151 155 158 150 149 149 154 152 160 159 156 143 150 162 163 150 119 124 144 135 132 132 136 143 143 128 127 125 128 113 48 37 343 353 348 356
132 136 135 135 124 140 149 148 154 153 147 147 151 155 147 152 167 169 142 150 155 163 139 130 135 144 160 133 142 140 150 143 147 153 109 59 137 162 163 71 302 327 341 314
141 139 143 149 155 162 143 153 146 150 151 148 151 151 154 163 164 152 144 151 158 158 125 136 146 151 147 146 147 152 151 164 162 161 175 157 169 193 218 160 257 346 320 301
160 163 160 172 165 152 158 166 163 160 161 153 157 157 157 162 161 138 151 149 168 142 142 151 157 169 151 149 149 160 166 120 160 178 167 178 176 217 194 216 261 267 297 314
170 147 156 162 170 170 169 178 169 170 173 163 160 164 163 167 155 148 155 159 163 150 151 162 162 168 158 152 158 159 169 168 177 170 196 186 207 199 197 225 256 289 288 281